Date,TemperatureHighF,TemperatureAvgF,TemperatureLowF,DewpointHighF,DewpointAvgF,DewpointLowF,HumidityHigh,HumidityAvg,HumidityLow,PressureMaxIn,PressureMinIn,WindSpeedMaxMPH,WindSpeedAvgMPH,GustSpeedMaxMPH,PrecipitationSumIn
2014-1-1,38.0,30.1,23.3,35.0,28.3,21.1,100,93,75,0.00,40.00,11,3,18,0.14
2014-1-2,40.9,31.3,18.9,25.6,22.2,16.7,94,70,53,0.00,40.00,18,9,28,0.00
2014-1-3,46.8,38.3,28.6,33.2,24.0,18.2,72,56,36,0.00,40.00,22,10,44,0.00
2014-1-4,28.5,17.4,10.0,22.6,14.4,8.0,93,88,65,0.00,40.00,21,5,28,0.00
2014-1-5,10.0,2.2,-5.7,8.1,-6.8,-15.2,92,66,46,0.00,40.00,21,7,35,0.00
2014-1-6,27.0,13.6,-1.7,9.8,1.1,-7.4,77,57,47,0.00,40.00,19,10,29,0.00
2014-1-7,38.1,32.0,26.6,27.2,20.9,9.8,79,63,48,0.00,40.00,11,4,18,0.00
2014-1-8,42.7,31.5,21.0,25.5,21.5,17.0,84,67,49,0.00,40.00,11,5,20,0.00
2014-1-9,42.9,34.1,24.5,28.3,22.8,17.2,78,63,45,0.00,40.00,13,6,24,0.00
2014-1-10,47.4,38.4,29.6,25.6,22.2,17.2,72,52,39,0.00,40.00,16,7,32,0.00
2014-1-11,55.4,40.6,29.6,32.3,26.4,21.6,74,57,38,0.00,40.00,24,7,44,0.00
2014-1-12,44.5,40.0,34.5,27.2,21.0,16.6,71,47,33,0.00,40.00,22,10,40,0.00
2014-1-13,55.0,44.5,32.0,31.7,25.9,19.3,98,51,29,0.00,40.00,31,17,55,0.00
2014-1-14,36.6,32.5,30.1,28.8,24.9,22.5,89,73,64,0.00,40.00,17,9,32,0.00
2014-1-15,57.7,45.0,29.8,27.4,22.0,18.3,76,43,22,0.00,40.00,21,12,42,0.00
2014-1-16,47.8,38.0,29.4,24.5,20.6,17.7,75,50,32,0.00,40.00,11,5,22,0.00
2014-1-17,54.1,40.4,30.2,25.0,22.1,19.5,72,49,28,0.00,40.00,17,10,26,0.00
2014-1-18,45.4,37.5,26.9,25.3,23.2,20.4,76,57,42,0.00,40.00,17,9,29,0.00
2014-1-19,50.1,43.6,39.3,24.7,23.3,19.7,53,44,34,0.00,40.00,19,9,29,0.00
2014-1-20,45.9,38.0,32.6,24.3,20.7,17.8,60,49,37,0.00,40.00,13,6,21,0.00
2014-1-21,51.9,40.7,32.7,28.0,21.7,18.6,71,48,27,0.00,40.00,10,6,20,0.00
2014-1-22,36.2,28.0,18.8,29.4,22.4,14.7,95,79,67,0.00,40.00,14,7,21,0.00
2014-1-23,31.9,25.9,18.3,20.2,16.9,14.2,89,69,52,0.00,40.00,17,9,30,0.00
2014-1-24,51.8,40.3,31.9,29.8,22.3,16.7,58,48,38,0.00,40.00,16,9,26,0.00
2014-1-25,55.0,44.0,32.2,29.8,25.8,21.9,67,49,34,0.00,40.00,16,8,30,0.00
2014-1-26,46.7,31.1,15.1,34.0,17.3,-1.6,86,56,39,0.00,40.00,24,9,43,0.00
2014-1-27,25.4,15.4,7.8,8.2,4.2,1.7,80,61,41,0.00,40.00,13,4,18,0.00
2014-1-28,32.6,19.7,7.9,8.4,5.7,2.5,80,56,34,0.00,40.00,16,8,25,0.00
2014-1-29,43.5,34.1,24.9,32.0,17.0,6.2,89,51,39,0.00,40.00,16,8,25,0.00
2014-1-30,24.8,15.2,4.1,21.5,11.7,1.8,93,86,69,0.00,40.00,13,5,22,0.00
2014-1-31,32.8,16.3,-0.7,20.1,9.5,-3.6,93,76,42,0.00,40.00,16,6,25,0.00